This demonstration page uses our WeatherBlox Daily Observations layout. Learn more.

Left ArrowRight Arrow

34.74481, -87.66753

Hourly Observations for April 27, 2021

Temp ( °F °C ) Dew Point ( °F °C ) Humidity (%) Winds ( mph kmh ) Pressure ( in mb ) Visibility ( mi km ) Precip ( " mm )
12:53 am 00:53 Clear 62 16.7 50 10 65 65 SE 3 6 30.02 1017 10 16 0.00 0.00
1:53 am 01:53 Clear 59 15 51 10.6 75 75 Calm 30.03 1017 10 16 0.00 0.00
2:53 am 02:53 Clear 58 14.4 50 10 75 75 E 5 7 30.03 1017 10 16 0.00 0.00
3:53 am 03:53 Clear 59 15 49 9.4 69 69 SE 7 11 30.04 1017 10 16 0.00 0.00
4:53 am 04:53 Clear 59 15 50 10 72 72 SE 6 9 30.05 1018 10 16 0.00 0.00
5:53 am 05:53 Clear 55 12.8 49 9.4 80 80 SE 5 7 30.07 1018 10 16 0.00 0.00
6:53 am 06:53 Sunny 58 14.4 50 10 75 75 SE 7 11 30.06 1018 10 16 0.00 0.00
7:53 am 07:53 Sunny 64 17.8 52 11.1 65 65 SE 6 9 30.07 1018 10 16 0.00 0.00
8:53 am 08:53 Sunny 70 21.1 54 12.2 57 57 S 9 15 30.06 1018 10 16 0.00 0.00
9:53 am 09:53 Sunny 75 23.9 53 11.7 46 46 SSW 10 17 30.07 1018 10 16 0.00 0.00
10:53 am 10:53 Sunny 79 26.1 51 10.6 38 38 SW 15 24 30.07 1018 10 16 0.00 0.00
11:53 am 11:53 Sunny 79 26.1 51 10.6 38 38 SSW 10 17 30.05 1018 10 16 0.00 0.00
12:53 pm 12:53 Sunny 82 27.8 52 11.1 35 35 S 13 20 30.03 1017 10 16 0.00 0.00
1:53 pm 13:53 Partly Cloudy 82 27.8 54 12.2 38 38 S 14 22 30.02 1017 8 13 0.00 0.00
2:53 pm 14:53 Sunny 83 28.3 56 13.3 40 40 S 9 15 30.00 1016 10 16 0.00 0.00
3:53 pm 15:53 Sunny 83 28.3 56 13.3 40 40 S 14 22 29.99 1016 10 16 0.00 0.00
4:53 pm 16:53 Sunny 83 28.3 56 13.3 40 40 S 8 13 29.98 1015 10 16 0.00 0.00
5:53 pm 17:53 Mostly Cloudy 81 27.2 57 13.9 44 44 S 13 20 29.99 1016 10 16 0.00 0.00
6:53 pm 18:53 Partly Cloudy 79 26.1 58 14.4 49 49 S 6 9 30.00 1016 10 16 0.00 0.00
7:53 pm 19:53 Clear 76 24.4 59 15 56 56 SSE 5 7 30.00 1016 10 16 0.00 0.00
8:53 pm 20:53 Clear 74 23.3 59 15 60 60 SSE 6 9 30.00 1016 10 16 0.00 0.00
9:53 pm 21:53 Clear 75 23.9 59 15 58 58 S 8 13 30.00 1016 10 16 0.00 0.00
10:53 pm 22:53 Clear 75 23.9 59 15 58 58 S 7 11 29.99 1016 10 16 0.00 0.00
11:53 pm 23:53 Clear 73 22.8 60 15.6 64 64 S 6 9 29.99 1016 10 16 0.00 0.00

Powered by AerisWeather